Flag for Canada Weather past 2 weeks in Kingston, Ontario, Canada

Now
79 °F

Partly sunny.


Feels Like: 81 °F
Forecast: 65 / 84 °F
Wind: 13 mph from South

Location: Kingston

Current Time: Jul 28, 2015 at 2:29:08 PM

Latest Report: Jul 28, 2015 at 2:00 PM


Visibility: 15 mi

Pressure: 29.98 "Hg

Humidity: 74%

Dew point: 70 °F

Location of KingstonLocation

Historic Weather in Kingston — Graph

°F

Kingston temperature yesterday

Maximum temperature yesterday: 79 °F (at 5:00 PM)
Minimum temperature yesterday: 66 °F (at 6:00 AM)
Average temperature yesterday: 73 °F

Past Weeks' High & Low Weather Summary

 TemperatureHumidityPressure
High82 °F (Jul 13, 5:00 PM)100% (Jul 14, 9:00 PM)30.15 "Hg (Jul 14, 9:00 PM)
Low48 °F (Jul 16, 6:00 AM)47% (Jul 22, 5:00 PM)29.52 "Hg (Jul 14, 6:00 PM)
Average70 °F78%29.85 "Hg
* Reported Jul 13 1:00 PM — Jul 28 1:00 PM, Kingston, Weather by CustomWeather, © 2015

Note: Actual official high and low records may vary slightly from our data, if they occured in-between our weather recording intervals... More about our weather records

Advertising

Kingston weather history for previous 24 hours

 ConditionsComfort  
Time TempWeatherWind HumidityBarometerVisibility
1:00 PM
Tue, Jul 28
77 °FPartly sunny.12 mph79%29.99 "Hg15 mi
12:00 PM77 °FPartly sunny.7 mph74%30.01 "Hg15 mi
11:00 AM77 °FPartly sunny.5 mph79%30.00 "Hg15 mi
10:00 AM75 °FPartly sunny.2 mph78%30.00 "Hg15 mi
9:00 AM72 °FPartly sunny.5 mph83%30.01 "Hg15 mi
8:00 AM72 °FPartly sunny.No wind83%30.01 "Hg15 mi
7:00 AM64 °FPartly sunny.No wind100%30.00 "Hg15 mi
6:00 AM63 °FPassing clouds.No wind100%29.99 "Hg15 mi
11:00 PM
Mon, Jul 27
68 °FPassing clouds.5 mph94%29.97 "Hg15 mi
10:00 PM68 °FPassing clouds.5 mph94%29.97 "Hg15 mi
9:00 PM72 °FScattered clouds.3 mph83%29.96 "Hg15 mi
8:00 PM72 °FScattered clouds.8 mph88%29.96 "Hg15 mi
7:00 PM75 °FScattered clouds.6 mph78%29.95 "Hg15 mi
6:00 PM79 °FPassing clouds.8 mph70%29.95 "Hg15 mi
5:00 PM79 °FPassing clouds.12 mph65%29.95 "Hg15 mi
4:00 PM75 °FScattered clouds.13 mph78%29.98 "Hg15 mi
3:00 PM75 °FPassing clouds.12 mph78%29.98 "Hg15 mi
2:00 PM77 °FScattered clouds.13 mph69%29.99 "Hg15 mi
Weather by CustomWeather, © 2015

See weather overviewHow to use our weather pages